period_start,C,m1,H,J0,J1,J2,J3,J4,J5,JA,JB,JC,JD,JJ,JK,JN,#
2017-12-26 00:03:57,0.25,3.80,0.00,15.01,18.35,21.61,14.28,53.37,1006.40,2064.56,2423.95,2174.45,2470.06,599.54,605.87,32.40,0000 0000 0000 0000 000000
2017-12-26 00:08:59,0.23,3.81,0.00,14.96,18.29,21.56,14.22,53.31,1006.36,2064.97,2421.65,2172.49,2467.98,600.04,606.52,32.45,0000 0000 0000 0000 000000
2017-12-26 00:14:00,0.21,3.82,0.00,14.92,18.24,21.51,14.25,53.49,1006.36,2064.99,2419.25,2170.33,2465.48,599.99,606.54,32.50,0000 0000 0000 0000 000000
2017-12-26 00:19:01,0.20,3.83,0.00,14.87,18.20,21.49,14.31,53.35,1006.36,2065.01,2417.29,2168.71,2463.38,599.85,606.54,32.55,0000 0000 0000 0000 000000
2017-12-26 00:24:03,0.24,3.85,0.00,14.84,18.15,21.44,14.29,53.42,1006.35,2065.41,2415.09,2166.64,2461.01,599.87,606.77,32.60,0000 0000 0000 0000 000000
2017-12-26 00:29:04,0.18,3.86,0.00,14.81,18.10,21.45,14.29,53.46,1006.29,2065.95,2413.60,2165.13,2459.47,600.14,606.90,32.65,0000 0000 0000 0000 000000
2017-12-26 00:34:06,0.11,3.86,0.00,14.76,18.05,21.39,14.34,53.73,1006.32,2065.98,2412.37,2163.94,2458.11,600.05,606.87,32.70,0000 0000 0000 0000 000000
2017-12-26 00:39:07,0.13,3.87,0.00,14.73,18.00,21.33,14.37,53.40,1006.32,2065.99,2410.77,2162.78,2456.73,600.03,607.03,32.75,0000 0000 0000 0000 000000
2017-12-26 00:44:08,0.18,3.88,0.00,14.69,17.95,21.32,14.26,53.44,1006.35,2066.03,2408.99,2161.23,2454.82,599.72,606.76,32.80,0000 0000 0000 0000 000000
2017-12-26 00:49:10,0.24,3.89,0.00,14.67,17.90,21.28,14.26,53.37,1006.38,2066.31,2407.05,2159.32,2452.49,599.74,606.85,32.85,0000 0000 0000 0000 000000
2017-12-26 00:54:11,0.23,3.90,0.00,14.62,17.85,21.24,14.34,53.51,1006.35,2066.91,2405.43,2157.44,2450.42,599.98,607.10,32.91,0000 0000 0000 0000 000000
2017-12-26 00:59:12,0.60,3.92,0.00,14.59,17.81,21.18,14.32,54.60,1006.30,2067.01,2400.11,2154.44,2445.09,599.77,606.97,32.96,0000 0000 0000 0000 000000
2017-12-26 01:04:13,0.47,3.95,0.00,14.56,17.75,21.07,14.41,54.78,1006.38,2067.16,2394.68,2149.46,2438.78,600.00,607.34,33.01,0000 0000 0000 0000 000000
2017-12-26 01:09:15,0.29,3.97,0.00,14.51,17.69,21.06,14.34,54.05,1006.69,2067.60,2393.17,2143.50,2436.56,600.02,607.64,33.06,0000 0000 0000 0000 000000
2017-12-26 01:14:16,0.18,3.98,0.00,14.49,17.64,20.98,14.34,53.73,1006.98,2067.94,2391.80,2141.77,2434.70,600.00,607.93,33.11,0000 0000 0000 0000 000000
2017-12-26 01:19:18,0.16,3.99,0.00,14.47,17.59,20.93,14.36,53.67,1007.23,2067.99,2390.21,2140.05,2432.70,599.89,608.12,33.16,0000 0000 0000 0000 000000
2017-12-26 01:24:19,0.18,4.00,0.00,14.44,17.54,20.90,14.41,54.63,1007.34,2067.99,2388.62,2137.97,2430.81,600.28,608.46,33.21,0000 0000 0000 0000 000000
2017-12-26 01:29:20,0.21,4.01,0.00,14.40,17.50,20.84,14.32,53.63,1007.32,2068.04,2386.97,2135.89,2428.51,600.10,608.30,33.26,0000 0000 0000 0000 000000
2017-12-26 01:34:21,0.27,4.02,0.00,14.36,17.45,20.78,14.35,53.50,1007.29,2068.25,2384.83,2133.55,2425.80,600.10,608.32,33.31,0000 0000 0000 0000 000000
2017-12-26 01:39:23,0.25,4.03,0.00,14.33,17.40,20.74,14.32,53.34,1007.35,2068.83,2382.84,2131.36,2423.32,600.16,608.55,33.36,0000 0000 0000 0000 000000
2017-12-26 01:44:24,0.24,4.05,0.00,14.29,17.36,20.71,14.31,53.31,1007.43,2068.97,2380.79,2129.19,2420.95,599.44,608.18,33.41,0000 0000 0000 0000 000000
2017-12-26 01:49:26,0.19,4.06,0.00,14.26,17.32,20.66,14.37,53.25,1007.68,2068.99,2378.91,2127.20,2418.64,600.19,609.05,33.46,0000 0000 0000 0000 000000
2017-12-26 01:54:27,0.20,4.07,0.00,14.23,17.27,20.61,14.43,53.38,1007.82,2068.99,2376.87,2125.11,2416.39,600.10,608.77,33.51,0000 0000 0000 0000 000000
2017-12-26 01:59:28,0.25,4.08,0.00,14.21,17.23,20.57,14.27,53.28,1007.83,2069.00,2374.33,2122.74,2413.73,599.96,608.93,33.56,0000 0000 0000 0000 000000
2017-12-26 02:04:29,0.27,4.09,0.00,14.17,17.19,20.52,14.30,53.19,1007.83,2069.04,2371.78,2120.25,2410.91,599.58,608.61,33.61,0000 0000 0000 0000 000000
2017-12-26 02:09:31,0.29,4.11,0.00,14.14,17.15,20.51,14.34,53.32,1007.75,2069.31,2369.33,2117.47,2408.13,600.04,609.10,33.66,0000 0000 0000 0000 000000
2017-12-26 02:14:32,0.31,4.12,0.00,14.10,17.11,20.47,14.34,53.19,1007.69,2069.81,2366.84,2114.92,2405.29,600.09,609.12,33.71,0000 0000 0000 0000 000000
2017-12-26 02:19:33,0.22,4.13,0.00,14.05,17.07,20.42,14.30,53.19,1007.53,2069.97,2364.69,2112.83,2402.91,599.73,608.91,33.76,0000 0000 0000 0000 000000
2017-12-26 02:24:35,0.22,4.15,0.00,14.05,17.03,20.39,14.39,53.41,1007.42,2069.99,2361.97,2110.53,2400.21,600.04,609.09,33.82,0000 0000 0000 0000 000000
2017-12-26 02:29:36,0.20,4.16,0.00,14.02,16.99,20.33,14.34,53.10,1007.49,2070.01,2360.12,2108.51,2398.16,599.88,609.10,33.87,0000 0000 0000 0000 000000
2017-12-26 02:34:37,0.20,4.17,0.00,13.99,16.96,20.30,14.40,53.17,1007.58,2070.07,2357.97,2106.67,2395.95,600.41,609.57,33.92,0000 0000 0000 0000 000000
2017-12-26 02:39:38,0.24,4.18,0.00,13.96,16.92,20.31,14.29,53.54,1007.53,2070.56,2356.01,2104.88,2393.90,599.77,609.08,33.97,0000 0000 0000 0000 000000
2017-12-26 02:44:39,0.22,4.19,0.00,13.94,16.88,20.26,14.34,53.39,1007.71,2070.88,2354.38,2103.06,2391.87,599.92,609.38,34.02,0000 0000 0000 0000 000000
2017-12-26 02:49:41,0.18,4.20,0.00,13.91,16.84,20.19,14.37,53.29,1007.84,2070.97,2352.67,2101.49,2390.05,600.52,610.26,34.07,0000 0000 0000 0000 000000
2017-12-26 02:54:42,0.14,4.21,0.00,13.88,16.80,20.16,14.37,53.38,1007.98,2070.99,2350.93,2100.00,2388.25,599.99,609.83,34.12,0000 0000 0000 0000 000000
2017-12-26 02:59:43,0.17,4.22,0.00,13.86,16.76,20.12,14.40,53.46,1008.12,2071.00,2349.12,2098.51,2386.52,599.91,609.80,34.17,0000 0000 0000 0000 000000
2017-12-26 03:04:44,0.16,4.23,0.00,13.84,16.73,20.09,14.39,53.43,1008.28,2071.03,2347.49,2097.03,2384.73,599.89,609.97,34.22,0000 0000 0000 0000 000000
2017-12-26 03:09:46,0.18,4.23,0.00,13.80,16.69,20.07,14.44,53.41,1008.39,2071.21,2345.72,2095.58,2382.96,600.33,610.40,34.27,0000 0000 0000 0000 000000
2017-12-26 03:14:47,0.20,4.24,0.00,13.78,16.65,20.03,14.37,53.61,1008.62,2071.76,2344.33,2094.32,2381.46,600.38,610.55,34.32,0000 0000 0000 0000 000000
2017-12-26 03:19:48,0.23,4.25,0.00,13.75,16.61,20.00,14.42,53.65,1008.79,2071.96,2342.35,2092.39,2379.22,600.10,610.61,34.37,0000 0000 0000 0000 000000
2017-12-26 03:24:49,0.20,4.27,0.00,13.74,16.58,19.96,14.41,53.85,1008.95,2071.98,2340.36,2090.30,2376.95,600.23,610.79,34.42,0000 0000 0000 0000 000000
2017-12-26 03:29:51,0.26,4.28,0.00,13.73,16.54,19.93,14.43,53.83,1009.02,2071.99,2338.16,2088.06,2374.38,600.12,610.81,34.47,0000 0000 0000 0000 000000
2017-12-26 03:34:52,0.22,4.29,0.00,13.71,16.51,19.85,14.47,54.08,1009.09,2071.99,2335.71,2085.81,2371.85,600.39,611.16,34.52,0000 0000 0000 0000 000000
2017-12-26 03:39:53,0.28,4.31,0.00,13.68,16.48,19.84,14.39,53.93,1009.24,2071.99,2333.08,2083.19,2368.97,600.04,610.97,34.57,0000 0000 0000 0000 000000
2017-12-26 03:44:55,0.42,4.32,0.00,13.67,16.44,19.81,14.40,53.93,1009.26,2072.00,2329.36,2079.36,2364.94,600.25,611.23,34.62,0000 0000 0000 0000 000000
2017-12-26 03:49:56,0.39,4.34,0.00,13.65,16.41,19.75,14.44,53.90,1009.26,2072.02,2325.29,2075.50,2360.59,600.04,610.99,34.67,0000 0000 0000 0000 000000
2017-12-26 03:54:57,0.33,4.36,0.00,13.63,16.38,19.73,14.39,53.95,1009.13,2072.18,2321.94,2072.38,2357.28,600.03,611.08,34.72,0000 0000 0000 0000 000000
2017-12-26 03:59:59,0.27,4.38,0.00,13.60,16.34,19.66,14.35,53.76,1009.26,2072.75,2319.72,2070.19,2354.82,599.69,610.81,34.78,0000 0000 0000 0000 000000
2017-12-26 04:05:01,0.22,4.39,0.00,13.57,16.31,19.67,14.37,53.62,1009.29,2072.95,2317.66,2068.34,2352.61,599.91,611.06,34.83,0000 0000 0000 0000 000000
2017-12-26 04:10:02,0.27,4.40,0.00,13.54,16.28,19.63,14.29,53.69,1009.37,2072.98,2314.62,2065.94,2349.79,599.36,610.67,34.88,0000 0000 0000 0000 000000
2017-12-26 04:15:03,0.21,4.41,0.00,13.51,16.25,19.59,14.46,53.82,1009.60,2072.98,2312.50,2064.13,2347.66,600.25,611.59,34.93,0000 0000 0000 0000 000000
2017-12-26 04:20:05,0.24,4.43,0.00,13.48,16.22,19.59,14.38,53.65,1009.72,2072.99,2310.19,2061.82,2345.10,599.90,611.49,34.98,0000 0000 0000 0000 000000
2017-12-26 04:25:05,0.20,4.44,0.00,13.46,16.19,19.55,14.39,53.61,1009.79,2072.99,2307.80,2059.90,2342.85,599.99,611.71,35.03,0000 0000 0000 0000 000000
2017-12-26 04:30:06,0.23,4.45,0.00,13.45,16.16,19.51,14.39,53.72,1009.79,2073.00,2305.70,2057.91,2340.73,599.81,611.51,35.08,0000 0000 0000 0000 000000
2017-12-26 04:35:08,0.24,4.46,0.00,13.45,16.13,19.46,14.38,54.08,1009.81,2073.02,2303.25,2055.63,2338.14,599.66,611.39,35.13,0000 0000 0000 0000 000000
2017-12-26 04:40:09,0.32,4.48,0.00,13.44,16.10,19.46,14.47,53.82,1009.82,2073.09,2300.37,2053.00,2335.11,599.99,611.79,35.18,0000 0000 0000 0000 000000
2017-12-26 04:45:10,0.33,4.49,0.00,13.42,16.07,19.46,14.46,53.75,1009.83,2073.47,2297.54,2050.55,2332.36,600.31,612.16,35.23,0000 0000 0000 0000 000000
2017-12-26 04:50:12,0.20,4.51,0.00,13.40,16.03,19.42,14.41,53.52,1009.81,2073.88,2295.52,2048.57,2330.18,599.94,611.78,35.28,0000 0000 0000 0000 000000
2017-12-26 04:55:13,0.22,4.52,0.00,13.39,16.01,19.36,14.42,53.74,1009.91,2073.98,2293.19,2046.89,2327.98,600.11,612.08,35.33,0000 0000 0000 0000 000000
2017-12-26 05:00:14,0.23,4.53,0.00,13.36,15.98,19.34,14.43,53.87,1009.96,2073.99,2291.00,2044.96,2325.82,600.18,612.24,35.38,0000 0000 0000 0000 000000
2017-12-26 05:05:15,0.21,4.54,0.00,13.33,15.95,19.34,14.37,53.75,1010.06,2073.99,2288.87,2043.07,2323.60,599.69,611.86,35.43,0000 0000 0000 0000 000000
2017-12-26 05:10:17,0.25,4.55,0.00,13.29,15.92,19.30,14.47,54.06,1009.93,2074.02,2286.30,2040.87,2321.20,600.34,612.50,35.48,0000 0000 0000 0000 000000
2017-12-26 05:15:18,0.20,4.56,0.00,13.24,15.89,19.28,14.45,53.93,1009.90,2074.18,2284.26,2039.27,2319.36,600.10,612.34,35.53,0000 0000 0000 0000 000000
2017-12-26 05:20:19,0.19,4.57,0.00,13.23,15.87,19.25,14.40,54.01,1010.00,2074.59,2282.60,2037.89,2317.78,599.68,612.08,35.58,0000 0000 0000 0000 000000
2017-12-26 05:25:20,0.18,4.58,0.00,13.19,15.83,19.24,14.43,53.92,1010.02,2074.94,2280.94,2036.55,2316.15,599.95,612.47,35.63,0000 0000 0000 0000 000000
2017-12-26 05:30:22,0.15,4.59,0.00,13.15,15.80,19.20,14.43,54.06,1010.18,2074.98,2279.51,2035.26,2314.65,599.99,612.83,35.69,0000 0000 0000 0000 000000
2017-12-26 05:35:23,0.18,4.60,0.00,13.11,15.77,19.20,14.39,53.47,1010.28,2074.99,2277.62,2033.80,2312.88,599.99,612.82,35.74,0000 0000 0000 0000 000000
2017-12-26 05:40:25,0.13,4.61,0.00,13.11,15.74,19.17,14.37,53.48,1010.31,2075.01,2276.13,2032.55,2311.40,599.76,612.55,35.79,0000 0000 0000 0000 000000
2017-12-26 05:45:26,0.11,4.61,0.00,13.08,15.70,19.12,14.46,53.49,1010.44,2075.03,2274.83,2031.53,2310.30,600.03,612.98,35.84,0000 0000 0000 0000 000000
2017-12-26 05:50:27,0.11,4.62,0.00,13.06,15.67,19.09,14.43,53.29,1010.56,2075.10,2273.69,2030.63,2309.28,599.65,612.81,35.89,0000 0000 0000 0000 000000
2017-12-26 05:55:29,0.21,4.63,0.00,13.03,15.64,19.08,14.39,53.34,1010.45,2075.65,2272.36,2029.43,2307.92,600.07,613.05,35.94,0000 0000 0000 0000 000000
2017-12-26 06:00:30,0.15,4.64,0.00,13.01,15.61,19.03,14.47,53.18,1010.53,2075.94,2270.75,2028.41,2306.59,600.01,613.11,35.99,0000 0000 0000 0000 000000
2017-12-26 06:05:31,0.12,4.64,0.00,12.98,15.57,18.99,14.40,53.39,1010.63,2075.99,2269.23,2027.17,2305.13,599.90,613.16,36.04,0000 0000 0000 0000 000000
2017-12-26 06:10:32,0.10,4.65,0.00,12.97,15.54,18.94,14.51,53.45,1010.69,2075.99,2268.24,2026.28,2304.17,600.33,613.66,36.09,0000 0000 0000 0000 000000
2017-12-26 06:15:34,0.10,4.65,0.00,12.94,15.51,18.94,14.48,53.56,1010.73,2075.99,2266.95,2025.41,2303.22,600.06,613.43,36.14,0000 0000 0000 0000 000000
2017-12-26 06:20:35,0.12,4.66,0.00,12.92,15.48,18.88,14.42,53.31,1010.80,2076.01,2265.69,2024.42,2302.17,600.10,613.61,36.19,0000 0000 0000 0000 000000
2017-12-26 06:25:37,0.11,4.66,0.00,12.90,15.44,18.83,14.46,53.33,1010.86,2076.05,2264.46,2023.54,2301.18,600.01,613.53,36.24,0000 0000 0000 0000 000000
2017-12-26 06:30:38,0.17,4.67,0.00,12.87,15.41,18.86,14.41,53.23,1010.82,2076.42,2263.07,2022.56,2299.97,599.94,613.55,36.29,0000 0000 0000 0000 000000
2017-12-26 06:35:39,0.17,4.68,0.00,12.85,15.38,18.83,14.40,53.47,1010.75,2076.85,2261.68,2021.54,2298.82,600.05,613.74,36.34,0000 0000 0000 0000 000000
2017-12-26 06:40:41,0.08,4.69,0.00,12.83,15.35,18.77,14.47,53.55,1010.72,2076.97,2260.58,2020.78,2297.86,600.12,613.73,36.39,0000 0000 0000 0000 000000
2017-12-26 06:45:42,0.09,4.69,0.00,12.81,15.33,18.77,14.49,53.39,1010.61,2076.99,2259.39,2020.00,2296.87,599.94,613.63,36.44,0000 0000 0000 0000 000000
2017-12-26 06:50:44,0.13,4.70,0.00,12.79,15.29,18.71,14.41,53.40,1010.44,2077.00,2257.93,2019.09,2295.79,599.77,613.35,36.49,0000 0000 0000 0000 000000
2017-12-26 06:55:45,0.14,4.71,0.00,12.77,15.26,18.68,14.41,53.52,1010.33,2077.00,2256.37,2017.95,2294.49,599.63,613.16,36.54,0000 0000 0000 0000 000000
2017-12-26 07:00:47,0.17,4.71,0.00,12.73,15.23,18.63,14.44,53.70,1010.12,2077.03,2254.66,2016.73,2292.92,600.03,613.71,36.59,0000 0000 0000 0000 000000
2017-12-26 07:05:48,0.24,4.72,0.00,12.72,15.20,18.62,14.41,53.67,1009.89,2077.25,2252.30,2015.05,2291.03,599.93,613.44,36.64,0000 0000 0000 0000 000000
2017-12-26 07:10:49,0.28,4.74,0.00,12.66,15.18,18.57,14.38,53.71,1009.81,2077.83,2250.12,2013.17,2288.86,599.95,613.41,36.70,0000 0000 0000 0000 000000
2017-12-26 07:15:50,0.16,4.75,0.00,12.62,15.14,18.54,14.47,53.84,1009.79,2077.96,2248.30,2011.68,2287.23,600.05,613.60,36.75,0000 0000 0000 0000 000000
2017-12-26 07:20:52,0.17,4.76,0.00,12.57,15.11,18.52,14.48,53.83,1009.78,2077.99,2246.50,2010.25,2285.48,599.80,613.41,36.80,0000 0000 0000 0000 000000
2017-12-26 07:25:53,0.15,4.77,0.00,12.54,15.08,18.52,14.46,53.60,1009.77,2077.99,2244.94,2008.91,2283.87,600.14,613.96,36.85,0000 0000 0000 0000 000000
2017-12-26 07:30:55,0.15,4.77,0.00,12.51,15.05,18.47,14.39,53.52,1009.76,2078.02,2243.36,2007.74,2282.52,599.91,613.66,36.90,0000 0000 0000 0000 000000
2017-12-26 07:35:56,0.13,4.78,0.00,12.49,15.02,18.46,14.49,53.76,1009.80,2078.14,2242.25,2006.66,2281.37,600.22,614.04,36.95,0000 0000 0000 0000 000000
2017-12-26 07:40:57,0.17,4.79,0.00,12.46,14.98,18.44,14.59,53.81,1009.81,2078.43,2240.82,2005.62,2280.23,600.17,614.01,37.00,0000 0000 0000 0000 000000
2017-12-26 07:45:58,0.15,4.80,0.00,12.43,14.95,18.40,14.47,53.80,1009.89,2078.79,2239.48,2004.64,2279.04,600.23,614.28,37.05,0000 0000 0000 0000 000000
2017-12-26 07:50:59,0.12,4.80,0.00,12.40,14.92,18.39,14.48,53.83,1010.16,2078.96,2238.40,2003.65,2277.96,599.99,614.16,37.10,0000 0000 0000 0000 000000
2017-12-26 07:56:01,0.08,4.81,0.00,12.38,14.88,18.32,14.46,53.91,1010.26,2078.98,2237.31,2002.86,2277.04,600.31,614.65,37.15,0000 0000 0000 0000 000000
2017-12-26 08:01:02,0.09,4.81,0.00,12.35,14.85,18.29,14.52,53.93,1010.41,2078.99,2236.45,2002.10,2276.34,599.96,614.46,37.20,0000 0000 0000 0000 000000
2017-12-26 08:06:03,0.15,4.82,0.00,12.34,14.81,18.27,14.53,53.98,1010.66,2079.00,2234.96,2000.97,2274.86,600.20,614.80,37.25,0000 0000 0000 0000 000000
2017-12-26 08:11:05,0.11,4.83,0.00,12.35,14.78,18.22,14.45,54.12,1010.78,2079.02,2233.74,1999.98,2273.75,599.63,614.33,37.30,0000 0000 0000 0000 000000
2017-12-26 08:16:06,0.11,4.83,0.00,12.34,14.74,18.16,14.50,54.15,1010.85,2079.05,2232.54,1999.07,2272.75,600.09,614.87,37.35,0000 0000 0000 0000 000000
2017-12-26 08:21:07,0.14,4.84,0.00,12.33,14.71,18.12,14.47,54.27,1010.90,2079.14,2231.24,1997.97,2271.55,599.91,614.64,37.40,0000 0000 0000 0000 000000
2017-12-26 08:26:09,0.22,4.85,0.00,12.31,14.68,18.10,14.53,53.99,1011.16,2079.52,2229.50,1996.64,2269.97,599.95,615.24,37.45,0000 0000 0000 0000 000000
2017-12-26 08:31:10,0.51,4.87,0.00,12.32,14.65,18.08,14.42,53.88,1011.26,2079.84,2226.05,1994.22,2266.98,600.06,615.14,37.50,0000 0000 0000 0000 000000
2017-12-26 08:36:12,0.10,4.88,0.00,12.31,14.62,18.03,14.48,53.80,1011.38,2079.96,2224.42,1991.16,2264.39,600.16,615.38,37.55,0000 0000 0000 0000 000000
2017-12-26 08:41:13,0.10,4.89,0.00,12.31,14.59,17.99,14.50,53.55,1011.61,2079.96,2223.42,1990.34,2263.33,600.20,615.45,37.61,0000 0000 0000 0000 000000
2017-12-26 08:46:14,0.12,4.89,0.00,12.28,14.56,17.97,14.48,53.35,1011.94,2079.97,2222.08,1989.43,2262.20,599.78,615.34,37.66,0000 0000 0000 0000 000000
2017-12-26 08:51:15,0.13,4.90,0.00,12.29,14.53,17.96,14.44,53.30,1012.41,2079.97,2220.68,1988.40,2260.98,599.56,615.36,37.71,0000 0000 0000 0000 000000
2017-12-26 08:56:17,0.11,4.91,0.00,12.29,14.51,17.96,14.50,53.13,1012.71,2079.98,2219.48,1987.47,2259.83,600.07,616.04,37.76,0000 0000 0000 0000 000000
2017-12-26 09:01:18,0.12,4.91,0.00,12.31,14.49,17.93,14.52,53.06,1012.74,2079.98,2218.34,1986.41,2258.62,600.45,616.32,37.81,0000 0000 0000 0000 000000
2017-12-26 09:06:20,0.12,4.92,0.00,12.33,14.47,17.90,14.43,53.15,1012.74,2079.99,2216.95,1985.46,2257.52,600.21,616.13,37.86,0000 0000 0000 0000 000000
2017-12-26 09:11:21,0.12,4.92,0.00,12.34,14.46,17.92,14.49,53.27,1012.76,2079.99,2215.66,1984.44,2256.30,600.05,616.00,37.91,0000 0000 0000 0000 000000
2017-12-26 09:16:22,0.18,4.93,0.00,12.36,14.44,17.85,14.61,53.21,1012.72,2079.99,2213.88,1983.47,2254.64,600.27,616.21,37.96,0000 0000 0000 0000 000000
2017-12-26 09:21:24,0.26,4.95,0.00,12.35,14.44,17.85,14.47,53.17,1012.52,2079.99,2210.46,1981.23,2251.85,600.01,615.79,38.01,0000 0000 0000 0000 000000
2017-12-26 09:26:25,0.11,4.95,0.00,12.36,14.44,17.81,14.43,53.09,1012.21,2079.99,2209.37,1980.30,2250.72,600.00,615.57,38.06,0000 0000 0000 0000 000000
2017-12-26 09:31:26,0.15,4.96,0.00,12.35,14.42,17.84,14.39,53.35,1011.69,2079.99,2207.56,1979.16,2249.37,599.51,614.84,38.11,0000 0000 0000 0000 000000
2017-12-26 09:36:27,0.22,4.97,0.00,12.34,14.42,17.89,14.49,53.63,1011.38,2079.99,2205.11,1977.45,2247.23,600.11,615.10,38.16,0000 0000 0000 0000 000000
2017-12-26 09:41:29,0.17,4.98,0.00,12.34,14.42,17.91,14.44,53.52,1011.30,2080.00,2203.27,1976.02,2245.50,599.78,614.92,38.21,0000 0000 0000 0000 000000
2017-12-26 09:46:30,0.19,4.99,0.00,12.31,14.42,17.93,14.43,53.60,1011.20,2080.02,2201.41,1974.74,2243.88,600.04,615.10,38.26,0000 0000 0000 0000 000000
2017-12-26 09:51:31,0.17,5.00,0.00,12.29,14.42,17.98,14.47,53.56,1011.22,2080.03,2199.59,1973.43,2242.32,600.31,615.41,38.31,0000 0000 0000 0000 000000
2017-12-26 09:56:32,0.19,5.01,0.00,12.26,14.41,17.96,14.44,53.46,1011.10,2080.03,2197.49,1971.92,2240.55,599.88,614.97,38.36,0000 0000 0000 0000 000000
2017-12-26 10:01:34,0.18,5.02,0.00,12.25,14.40,17.96,14.44,53.62,1011.24,2080.03,2195.47,1970.41,2238.96,600.22,615.48,38.41,0000 0000 0000 0000 000000
2017-12-26 10:06:35,0.17,5.03,0.00,12.25,14.39,17.92,14.49,53.44,1011.35,2080.02,2193.69,1969.03,2237.34,600.03,615.30,38.46,0000 0000 0000 0000 000000
2017-12-26 10:11:36,0.22,5.04,0.00,12.24,14.39,17.88,14.47,53.40,1011.15,2080.10,2191.36,1967.66,2235.59,599.65,614.98,38.51,0000 0000 0000 0000 000000
2017-12-26 10:16:38,0.17,5.05,0.00,12.21,14.39,17.90,14.51,53.21,1011.31,2080.10,2189.29,1966.15,2233.82,600.12,615.51,38.56,0000 0000 0000 0000 000000
2017-12-26 10:21:39,0.24,5.06,0.00,12.21,14.38,17.86,14.49,53.30,1011.40,2080.20,2186.97,1964.54,2231.93,600.25,615.60,38.62,0000 0000 0000 0000 000000
2017-12-26 10:26:40,0.21,5.07,0.00,12.19,14.37,17.85,14.51,53.44,1011.45,2080.49,2185.01,1963.21,2230.24,600.26,615.75,38.67,0000 0000 0000 0000 000000
2017-12-26 10:31:41,0.17,5.08,0.00,12.17,14.37,17.84,14.48,53.16,1011.62,2080.78,2183.02,1961.90,2228.68,600.36,615.85,38.72,0000 0000 0000 0000 000000
2017-12-26 10:36:43,0.25,5.09,0.00,12.16,14.34,17.81,14.50,53.48,1011.16,2080.85,2180.88,1960.44,2226.88,600.14,615.51,38.77,0000 0000 0000 0000 000000
2017-12-26 10:41:44,2.20,5.13,0.00,12.15,14.34,17.85,14.44,53.81,1011.63,2081.02,2167.64,1950.08,2215.33,600.07,615.74,38.82,0000 0000 0000 0000 000000
2017-12-26 10:46:45,0.75,5.24,0.00,12.13,14.31,17.79,14.46,53.34,1011.51,2081.65,2152.75,1936.69,2200.13,600.20,615.84,38.87,0000 0000 0000 0000 000000
2017-12-26 10:51:47,-0.18,5.23,0.00,12.09,14.27,17.83,14.55,53.53,1011.60,2081.96,2157.36,1937.08,2201.35,599.86,615.65,38.92,0000 0000 0000 0000 000000
2017-12-26 10:56:48,0.54,5.24,0.00,12.08,14.23,17.77,14.52,53.52,1011.62,2082.01,2154.16,1935.39,2198.87,599.96,615.80,38.97,0000 0000 0000 0000 000000
2017-12-26 11:01:49,-0.14,5.26,0.93,12.07,14.19,17.75,14.45,53.23,1011.81,2082.22,2152.98,1933.98,2197.34,599.93,615.95,39.02,0000 0000 0000 0000 000000
2017-12-26 11:06:50,0.04,5.25,1.00,12.07,14.16,17.79,14.48,53.57,1011.73,2082.54,2155.14,1934.11,2198.39,600.23,616.07,39.07,0000 0000 0000 0000 000000
2017-12-26 11:11:52,0.34,5.26,1.00,12.06,14.13,17.75,14.48,53.27,1011.67,2082.95,2152.17,1932.35,2195.93,600.08,615.96,39.12,0000 0000 0000 0000 000000
2017-12-26 11:16:53,0.50,5.30,1.00,12.05,14.10,17.68,14.45,53.27,1012.01,2083.02,2144.39,1928.68,2190.33,599.73,615.78,39.17,0000 0000 0000 0000 000000
2017-12-26 11:21:55,0.43,5.30,1.00,12.05,14.06,17.69,14.54,53.41,1012.19,2083.17,2143.79,1927.72,2189.32,599.75,615.86,39.22,0000 0000 0000 0000 000000
2017-12-26 11:26:56,0.36,5.34,1.00,12.02,14.03,17.68,14.52,53.47,1012.09,2083.90,2137.31,1924.60,2184.83,600.06,616.39,39.27,0000 0000 0000 0000 000000
2017-12-26 11:31:58,-0.22,5.34,0.03,12.02,13.99,17.64,14.46,53.43,1011.86,2083.98,2138.52,1925.01,2185.70,599.65,615.82,39.32,0000 0000 0000 0000 000000
2017-12-26 11:36:59,0.27,5.33,0.00,11.98,13.97,17.65,14.50,53.25,1012.05,2083.99,2138.26,1924.34,2185.47,599.89,616.19,39.37,0000 0000 0000 0000 000000
2017-12-26 11:42:00,0.38,5.36,0.00,11.94,13.93,17.60,14.49,53.51,1011.98,2084.04,2132.40,1921.86,2181.59,600.07,616.40,39.42,0000 0000 0000 0000 000000
2017-12-26 11:47:02,0.14,5.37,0.00,11.92,13.90,17.57,14.45,53.34,1012.18,2084.30,2130.95,1920.86,2180.70,599.61,616.01,39.47,0000 0000 0000 0000 000000
2017-12-26 11:52:03,0.18,5.37,0.00,11.92,13.87,17.61,14.52,53.46,1012.26,2084.83,2129.84,1919.86,2179.55,600.09,616.62,39.53,0000 0000 0000 0000 000000
2017-12-26 11:57:04,1.08,5.41,0.00,11.88,13.84,17.53,14.47,53.47,1012.22,2084.96,2128.51,1905.09,2178.25,600.22,616.82,39.58,0000 0000 0000 0000 000000
2017-12-26 12:02:05,3.13,5.51,0.00,11.87,13.82,17.51,14.52,53.63,1012.40,2084.99,2119.06,1872.98,2162.85,599.86,616.61,39.63,0000 0000 0000 0000 000000
2017-12-26 12:07:06,1.18,5.64,0.00,11.85,13.78,17.42,14.53,53.43,1012.58,2085.02,2107.60,1851.60,2146.42,600.21,617.20,39.68,0000 0000 0000 0000 000000
2017-12-26 12:12:07,-0.45,5.64,0.00,11.84,13.76,17.46,14.42,53.39,1012.75,2085.07,2108.66,1854.32,2148.53,599.79,616.83,39.73,0000 0000 0000 0000 000000
2017-12-26 12:17:09,-0.71,5.61,0.00,11.85,13.74,17.47,14.47,53.17,1012.81,2085.05,2114.86,1863.68,2156.14,600.08,617.04,39.78,0000 0000 0000 0000 000000
2017-12-26 12:22:10,-0.64,5.57,0.00,11.86,13.72,17.40,14.54,52.93,1012.77,2085.02,2120.27,1873.23,2161.37,600.03,617.03,39.83,0000 0000 0000 0000 000000
2017-12-26 12:27:11,-0.34,5.55,0.00,11.86,13.70,17.41,14.51,53.13,1012.71,2085.03,2120.89,1879.78,2162.19,599.96,616.92,39.88,0000 0000 0000 0000 000000
2017-12-26 12:32:12,-0.32,5.54,0.00,11.87,13.69,17.36,14.50,53.37,1012.70,2085.02,2120.71,1885.50,2162.89,599.91,616.73,39.93,0000 0000 0000 0000 000000
2017-12-26 12:37:14,-0.32,5.52,0.00,11.86,13.68,17.37,14.52,53.49,1012.82,2085.01,2120.49,1890.75,2163.02,600.11,617.10,39.98,0000 0000 0000 0000 000000
2017-12-26 12:42:15,-0.25,5.50,0.00,11.88,13.67,17.37,14.38,53.23,1013.19,2085.01,2119.56,1894.83,2162.37,599.62,616.92,40.03,0000 0000 0000 0000 000000
2017-12-26 12:47:16,-0.21,5.49,0.00,11.87,13.67,17.39,14.50,53.58,1013.19,2085.01,2117.66,1897.16,2160.65,600.32,617.69,40.08,0000 0000 0000 0000 000000
2017-12-26 12:52:18,-0.06,5.48,0.00,11.89,13.65,17.41,14.44,53.61,1013.38,2085.00,2116.86,1899.14,2159.47,600.08,617.41,40.13,0000 0000 0000 0000 000000
2017-12-26 12:57:19,0.04,5.49,0.00,11.89,13.64,17.41,14.51,53.24,1013.65,2085.00,2116.03,1899.97,2158.27,599.98,617.43,40.18,0000 0000 0000 0000 000000
